Track ORBCOMM FM117 now! 10-day predictions ORBCOMM FM117 is classified as:
1 41188U 15081K 23086.15657590 .00001786 00000-0 44373-3 0 9990 2 41188 47.0018 336.6474 0002902 209.9658 150.1060 14.55557979388301